sat.trackr.live / text

‹ back to catalog

GSAT-10 (GAGAN/PRN 128)

NORAD 38779 · 2012-051B

PAYLOAD ACTIVE UNKNOWN

§ Identity

Operator
Country
IND
Launch date
2012-09-28
Launch site
FRGUI
Launch vehicle
Mass (kg)
RCS (m²)
13.85

Purposes: comms, nav

External: N2YO · Heavens-Above · Gunter

§ Orbital elements

Epoch: 2026-09-13T00:33:43.748064Z

Period
1,436.07 min
Inclination
0.0533°
Eccentricity
0.0005624
Mean motion
1.00273392 rev/d
Perigee alt
35,762.4 km
Apogee alt
35,809.9 km
Semi-major
42,164.3 km
B*
0.0000e+0
RAAN
269.6944°
Arg perigee
202.5572°
Mean anomaly
331.1965°
Rev number
5,097

§ Raw data

GSAT-10 (GAGAN/PRN 128)1 38779U 12051B   26256.02342301 -.00000177  00000+0  00000+0 0  99932 38779   0.0533 269.6944 0005624 202.5572 331.1965  1.00273392 50973

JSON: /api/v1/satellites/38779 · /tle

For live sub-satellite position, see the globe view (requires WebGL).

§ Visibility from observer

Set your observer location to see the next 7 days of passes ≥ 10°. The values pass through the URL so the page stays shareable.

No JS? Fill the form by hand. The geolocation button needs JavaScript.